Content
SEND FEEDBACK

Daily
Averages
Monthly
Summary
United States of America

AMES, IOWA


Home > North America > United States > Iowa
Elevation: 929 feet     Latitude: 41 59N     Longitude: 093 37W

WEATHER
 
SELECT A DAY
Number of Records: 191,867;   Date Range: 9/19/96 - 10/20/14
 
SHARE

PRINT THIS DATA

[ ← Previous Day ]
WEATHER ALMANAC - JANUARY 31, 2013
[ Next Day → ]
[ °C ]   °F
Weather ElementAverageHighLow
Temperature5.6 °F10.9 °F (12:53 am)-2 °F (11:53 pm)
Dewpoint-1.8 °F6.8 °F (12:51 am)-9.9 °F (11:53 pm)
Humidity71.7 %85 % (12:51 am)61 % (1:20 pm)
Barometer30.08 in30.42 in (11:53 pm)29.86 in (12:51 am)
Wind Speed19.3 mph28.8 mph (2:02 pm)
Wind Gust39.1 mph (1:20 pm)
Weather ElementAverage
Visibility7.6 mi
Wind DirectionWNW (302.8 °)

Weather ElementTotal
Precipitation---
Heating Degree Days60.6 (Base 65)
Averaged from 43 records on January 31, 2013
WEATHER CONDITIONS BREAKOUT
WIND DIRECTION BREAKOUT
WEATHER BY HOUR - JANUARY 31, 2013
[ °C ]   °F
Local TimeTemperatureDewpointHumidityBarometerVisibilityWind DirectionWind SpeedGust SpeedPrecipitationEventsConditions
12:51 AM10.4 °F6.8 °F85 %29.86 in9.0 miWNW (290°)17.3 mph21.9 mphMostly Cloudy
12:53 AM10.9 °F6.1 °F81 %29.90 in9.0 miWNW (290°)15.0 mph21.9 mphMostly Cloudy
1:03 AM10.4 °F5.0 °F79 %29.86 in10.0 miWNW (290°)15.0 mph20.7 mphScattered Clouds
1:46 AM10.4 °F5.0 °F79 %29.87 in9.0 miWest (280°)15.0 mphOvercast
1:53 AM10.0 °F3.9 °F76 %29.91 in10.0 miWNW (290°)16.1 mphMostly Cloudy
2:04 AM8.6 °F3.2 °F79 %29.87 in10.0 miWNW (300°)16.1 mphScattered Clouds
2:24 AM8.6 °F3.2 °F79 %29.88 in7.0 miWNW (290°)15.0 mphMostly Cloudy
2:39 AM8.6 °F3.2 °F79 %29.88 in10.0 miWNW (300°)12.7 mphScattered Clouds
2:53 AM8.1 °F3.0 °F80 %29.93 in9.0 miWNW (300°)15.0 mphMostly Cloudy
3:05 AM8.6 °F3.2 °F79 %29.88 in7.0 miWNW (300°)13.8 mphMostly Cloudy
3:40 AM8.6 °F1.4 °F73 %29.89 in10.0 miWNW (300°)13.8 mph23.0 mphScattered Clouds
3:53 AM8.1 °F1.9 °F76 %29.94 in10.0 miWNW (290°)15.0 mphMostly Cloudy
4:53 AM6.1 °F0.0 °F76 %29.95 in10.0 miWNW (300°)13.8 mph24.2 mphMostly Cloudy
5:02 AM6.8 °F-0.4 °F72 %29.91 in10.0 miWNW (300°)13.8 mphScattered Clouds
5:35 AM5.0 °F-0.4 °F78 %29.92 in8.0 miWNW (300°)15.0 mphMostly Cloudy
5:53 AM3.9 °F-2.0 °F76 %29.98 in10.0 miWNW (300°)21.9 mph27.6 mphMostly Cloudy
6:01 AM3.2 °F-4.0 °F72 %29.93 in10.0 miWNW (300°)20.7 mphScattered Clouds
6:53 AM3.0 °F-5.1 °F69 %30.01 in10.0 miNW (310°)20.7 mph28.8 mphOvercast
7:53 AM1.9 °F-5.1 °F72 %30.04 in10.0 miNW (320°)18.4 mph25.3 mphOvercast
8:53 AM3.0 °F-5.1 °F69 %30.08 in10.0 miNW (310°)18.4 mph26.5 mphOvercast
9:53 AM3.9 °F-4.0 °F70 %30.11 in9.0 miNW (310°)18.4 mph26.5 mphMostly Cloudy
10:04 AM3.2 °F-4.0 °F72 %30.06 in6.0 miNW (310°)21.9 mph31.1 mphHaze
10:53 AM3.9 °F-4.0 °F70 %30.15 in7.0 miNW (310°)20.7 mph29.9 mphOvercast
11:53 AM5.0 °F-2.9 °F70 %30.17 in5.0 miWNW (300°)24.2 mph32.2 mphHaze
12:53 PM6.1 °F-2.9 °F67 %30.18 in5.0 miWNW (300°)21.9 mph31.1 mphHaze
1:10 PM6.8 °F-2.2 °F67 %30.13 in2.5 miNW (310°)26.5 mph35.7 mphHaze
1:20 PM6.8 °F-4.0 °F61 %30.13 in3.0 miNW (310°)26.5 mph39.1 mphHaze
1:46 PM6.8 °F-0.4 °F72 %30.14 in1.8 miNW (310°)25.3 mph33.4 mph0.00 inSnowLight Snow
1:53 PM5.0 °F-4.0 °F66 %30.20 in2.5 miNW (310°)24.2 mph33.4 mph0.00 inSnowLight Snow
2:02 PM6.8 °F-2.2 °F67 %30.14 in4.0 miNW (310°)28.8 mph34.5 mphHaze
2:16 PM5.0 °F-2.2 °F72 %30.15 in2.5 miNW (310°)26.5 mph33.4 mphHaze
2:26 PM5.0 °F-2.2 °F72 %30.15 in1.2 miNW (310°)21.9 mph35.7 mph0.00 inSnowLight Snow
2:33 PM6.8 °F-2.2 °F67 %30.15 in3.0 miWNW (300°)25.3 mph34.5 mph0.00 inHaze
2:53 PM5.0 °F-5.1 °F63 %30.22 in4.0 miNW (310°)25.3 mph35.7 mph0.00 inHaze
3:53 PM5.0 °F-5.1 °F63 %30.25 in5.0 miNW (310°)23.0 mph35.7 mphHaze
4:53 PM5.0 °F-4.0 °F66 %30.27 in8.0 miNW (310°)26.5 mph32.2 mphOvercast
5:53 PM3.9 °F-5.1 °F66 %30.30 in10.0 miNW (310°)17.3 mph25.3 mphMostly Cloudy
6:25 PM3.2 °F-5.8 °F66 %30.25 in10.0 miNW (310°)18.4 mph27.6 mphPartly Cloudy
6:53 PM3.0 °F-6.0 °F66 %30.33 in10.0 miNW (310°)17.3 mph24.2 mphClear
7:53 PM1.9 °F-7.1 °F66 %30.35 in10.0 miWNW (300°)16.1 mph26.5 mphClear
9:53 PM0.0 °F-9.0 °F66 %30.39 in10.0 miWNW (300°)20.7 mph26.5 mphClear
10:53 PM-0.9 °F-8.0 °F72 %30.41 in10.0 miWNW (300°)15.0 mphPartly Cloudy
11:53 PM-2.0 °F-9.9 °F69 %30.42 in10.0 miWNW (300°)15.0 mphClear
Hourly data recorded from KAMW, located miles away from Ames, Iowa







STORIES FROM OUR PARTNERS